Location: Anciles
(42.5833°N, 0.5167°E)
Time: 23:07:35
(UTC+00:00)

Cosmos 1943 Rocket - Pass Details

Date: 10 December 2019
Orbit: 812 x 844 km, 71.0° (Epoch: 18 January)

Event Time Altitude Azimuth Distance (km) Brightness Sun altitude
Rises 17:56:27 0° 344° (NNW) 3,405 5.4 -16.3°
Reaches altitude 10° 17:59:26 10° 359° (N) 2,463 4.5 -16.8°
Enters shadow 18:03:10 23° 40° (NE) 1,726 3.4 -17.5°
